WB7CYS Weather Reports


Display with metric or nautical units.
time (UTC)temp
F
wind
direction
speed
MPH
gust
MPH
rain 1hr
in
rain 24hr
in
rain mn
in
humidity
%
barometer
mb
20260902004538 78 307 5.0 8.0 0.00 0.00 0.00 35 1002.5
20260902003037 78 304 6.0 10.0 0.00 0.00 0.00 35 1002.5
20260902001536 78 290 7.0 10.0 0.00 0.00 0.00 34 1002.4
20260902000034 78 285 5.0 9.0 0.00 0.00 0.00 35 1002.5
20260901234532 78 281 3.0 13.0 0.00 0.00 0.00 36 1002.4
20260901233031 79 288 5.0 9.0 0.00 0.00 0.00 35 1002.5
20260901231528 79 338 7.0 10.0 0.00 0.00 0.00 36 1002.7
20260901230038 78 284 4.0 8.0 0.00 0.00 0.00 36 1002.8
20260901224523 78 253 5.0 10.0 0.00 0.00 0.00 36 1003.0
20260901223020 77 293 6.0 10.0 0.00 0.00 0.00 37 1003.3
20260901221516 76 213 3.0 6.0 0.00 0.00 0.00 39 1003.4
20260901220013 75 221 2.0 7.0 0.00 0.00 0.00 40 1003.5
20260901214512 75 217 4.0 6.0 0.00 0.00 0.00 40 1003.5
20260901213033 75 236 2.0 7.0 0.00 0.00 0.00 40 1003.7
20260901211516 75 255 3.0 10.0 0.00 0.00 0.00 39 1003.8
20260901210018 75 242 4.0 9.0 0.00 0.00 0.00 38 1004.0
20260901204509 75 194 5.0 9.0 0.00 0.00 0.00 38 1004.2
20260901203007 74 211 7.0 10.0 0.00 0.00 0.00 39 1004.5
20260901201501 72 260 4.0 13.0 0.00 0.00 0.00 43 1004.5
20260901200058 71 257 10.0 13.0 0.00 0.00 0.00 46 1004.6
20260901194557 71 250 10.0 15.0 0.00 0.00 0.00 46 1004.7
20260901193101 71 278 13.0 19.0 0.00 0.00 0.00 43 1004.5
20260901191559 71 293 5.0 11.0 0.00 0.00 0.00 37 1004.4
20260901190054 71 360 3.0 5.0 0.00 0.00 0.00 37 1004.2
20260901184553 70 75 3.0 4.0 0.00 0.00 0.00 38 1005.4
20260901183053 71 46 1.0 2.0 0.00 0.00 0.00 38 1005.7
20260901181548 70 332 3.0 5.0 0.00 0.00 0.00 39 1005.5
20260901180045 69 51 2.0 4.0 0.00 0.00 0.00 40 1005.2
20260901174543 68 127 1.0 3.0 0.00 0.00 0.00 40 1005.6
20260901173041 68 134 2.0 4.0 0.00 0.00 0.00 41 1005.6
20260901171539 67 205 1.0 5.0 0.00 0.00 0.00 42 1005.9
20260901170036 67 248 3.0 5.0 0.00 0.00 0.00 40 1005.8
20260901164537 66 229 3.0 6.0 0.00 0.00 0.00 42 1005.7
20260901163034 66 143 2.0 6.0 0.00 0.00 0.00 39 1005.0
20260901161536 65 89 2.0 4.0 0.00 0.00 0.00 41 1005.2
20260901160035 65 111 3.0 4.0 0.00 0.00 0.00 41 1005.0
20260901154527 64 86 4.0 4.0 0.00 0.00 0.00 41 1005.3
20260901153028 61 276 0.0 4.0 0.00 0.00 0.00 43 1005.5
20260901151526 63 276 3.0 5.0 0.00 0.00 0.00 42 1005.6
20260901150023 62 83 1.0 4.0 0.00 0.00 0.00 42 1005.1
20260901144521 60 105 4.0 6.0 0.00 0.00 0.00 44 1004.9
20260901143022 59 93 5.0 7.0 0.00 0.00 0.00 44 1004.7
20260901141521 60 94 3.0 5.0 0.00 0.00 0.00 42 1004.6
20260901140018 60 90 5.0 7.0 0.00 0.00 0.00 42 1004.4
20260901134516 0 0.0 0.0 0.00 0.00 0.00 1004.2
20260901133011 0 0.0 0.0 0.00 0.00 0.00 1004.1
20260901131519 0 0.0 0.0 0.00 0.00 0.00 1004.0
20260901130002 0 0.0 0.0 0.00 0.00 0.00 1004.0
20260901124558 0 0.0 0.0 0.00 0.00 0.00 1003.9
20260901123055 0 0.0 0.0 0.00 0.00 0.00 1003.8
20260901121549 0 0.0 0.0 0.00 0.00 0.00 1003.8
20260901120047 0 0.0 0.0 0.00 0.00 0.00 1003.9
20260901114544 0 0.0 0.0 0.00 0.00 0.00 1003.7
20260901113036 0 0.0 0.0 0.00 0.00 0.00 1003.9
20260901111531 0 0.0 0.0 0.00 0.00 0.00 1003.8
20260901110032 0 0.0 0.0 0.00 0.00 0.00 1004.0
20260901104524 0 0.0 0.0 0.00 0.00 0.00 1004.1
20260901103018 0 0.0 0.0 0.00 0.00 0.00 1004.3
20260901101513 0 0.0 0.0 0.00 0.00 0.00 1004.4
20260901100010 0 0.0 0.0 0.00 0.00 0.00 1004.5
20260901094516 59 87 5.0 6.0 0.00 0.00 0.00 43 1004.6
20260901093006 61 94 2.0 3.0 0.00 0.00 0.00 43 1004.6
20260901091505 60 86 4.0 6.0 0.00 0.00 0.00 44 1004.7
20260901090008 61 92 4.0 6.0 0.00 0.00 0.00 43 1004.7
20260901084601 59 87 5.0 6.0 0.00 0.00 0.00 45 1004.7
20260901083059 61 73 3.0 5.0 0.00 0.00 0.00 44 1004.8
20260901081556 61 99 2.0 5.0 0.00 0.00 0.00 44 1004.8
20260901080052 63 97 3.0 4.0 0.00 0.00 0.00 39 1004.6
20260901074550 62 97 4.0 5.0 0.00 0.00 0.00 42 1004.7
20260901073049 62 77 3.0 5.0 0.00 0.00 0.00 41 1004.6
20260901071557 62 93 4.0 6.0 0.00 0.00 0.00 43 1004.5
20260901070042 63 98 3.0 5.0 0.00 0.00 0.00 41 1004.5
20260901064543 67 142 1.0 3.0 0.00 0.00 0.00 35 1004.5
20260901063041 66 70 3.0 4.0 0.00 0.00 0.00 35 1004.4
20260901061541 68 106 0.0 2.0 0.00 0.00 0.00 34 1004.3
20260901060040 66 89 2.0 4.0 0.00 0.00 0.00 36 1004.5
20260901054540 66 85 2.0 2.0 0.00 0.00 0.00 36 1004.5
20260901053044 66 210 0.0 2.0 0.00 0.00 0.00 36 1004.6
20260901051538 67 261 2.0 4.0 0.00 0.00 0.00 35 1004.6
20260901050038 66 108 2.0 4.0 0.00 0.00 0.00 35 1004.5
20260901044544 67 313 3.0 4.0 0.00 0.00 0.00 33 1004.5
20260901043041 66 294 2.0 4.0 0.00 0.00 0.00 35 1004.4
20260901041537 68 143 2.0 3.0 0.00 0.00 0.00 33 1004.4
20260901040035 73 94 1.0 3.0 0.00 0.00 0.00 27 1004.4
20260901034536 73 346 1.0 3.0 0.00 0.00 0.00 28 1004.4
20260901033033 72 87 0.0 4.0 0.00 0.00 0.00 29 1004.3
20260901031533 74 91 4.0 6.0 0.00 0.00 0.00 27 1004.2
20260901030032 76 51 4.0 6.0 0.00 0.00 0.00 26 1004.2
20260901024531 76 56 4.0 6.0 0.00 0.00 0.00 26 1004.2
20260901023039 76 58 5.0 7.0 0.00 0.00 0.00 26 1004.2
20260901021531 78 53 4.0 6.0 0.00 0.00 0.00 24 1004.3
20260901020027 81 32 1.0 4.0 0.00 0.00 0.00 23 1004.4
20260901014526 82 356 2.0 8.0 0.00 0.00 0.00 22 1004.4
20260901013028 83 352 8.0 14.0 0.00 0.00 0.00 21 1004.5
20260901011524 83 1 7.0 14.0 0.00 0.00 0.00 21 1004.4
20260901010023 84 352 4.0 15.0 0.00 0.00 0.00 21 1004.5